HIMAWARI-8

Last updated on May 22, 2019, 3:11 a.m. UTC

1 40267U 14060A   19141.84556375 -.00000284  00000-0  00000+0 0  9993
2 40267   0.0135 232.4770 0001322 213.0983 238.6804  1.00271323 16950
UTC
Height (km)
Latitude
Longitude
Inclination
Orbital Period
UTC large
Height (km)
Speed (km/s)
/
Latitude / Longitude
Inclination (degrees)
Orbital Period (minutes)
Azimuth
Elevation
Range (km)
Doppler Factor
iOS Compass Heading
iOS Angle

Next 30 passes for location: Hong Kong

Rise time Rise Azimuth (degrees) Set time Set Azimuth (degrees) Duration Max altitude (degrees)

No matching passes for this satellites